SCP
0 0 0 0 0 0 0 0 0 0 0 0 0 0 0 0 0 0 0 0 0 0 0 0 0 0 0 0 0 0 0 0
0 0 0 0 0 0 0 0 0 0 0 0 0 0 0 0 0 0 0 0 0 0 0 0 0 0 0 0 0 0 0 0
0 0 0 0 0 0 0 0 0 0 0 0 0 0 0 0 0 0 0 0 0 0 0 0 0 0 0 0 0 0 0 0
0 0 0 0 0 0 0 0 0 0 0 0 0 0 0 0 0 0 0 0 0 0 0 0 0 0 0 0 0 0 0 0
0 0 0 0 0 0 0 0 0 0 0 0 0 0 0 0 0 0 0 0 0 0 0 0 0 0 0 0 0 0 0 0
0 0 0 0 0 0 0 0 0 0 0 0 0 0 0 0 0 0 0 0 0 0 0 0 0 0 0 0 0 0 0 0
0 0 0 0 0 0 0 0 0 0 0 0 0 0 0 0 0 0 0 0 0 0 0 0 0 0 0 0 0 0 0 0
0 0 0 0 0 0 0 0 0 0 0 0 0 0 0 0 0 0 0 0 0 0 0 0 0 0 0 0 0 0 0 0
0 0 0 0 0 0 0 0 0 0 0 0 0 0 0 0 0 0 0 0 0 0 0 0 0 0 0 0 0 0 0 0
0 0 0 0 0 0 0 0 0 0 0 0 0 0 0 0 0 0 0 0 0 0 0 0 0 0 0 0 0 0 0 0
0 0 0 0 0 0 0 0 0 0 0 0 0 0 0 0 0 0 0 0 0 0 0 0 0 0 0 0 0 0 0 0
0 0 0 0 0 0 0 0 0 0 0 0 0 0 0 0 0 0 0 0 0 0 0 0 0 0 0 0 0 0 0 0
0 0 0 0 0 0 0 0 0 0 0 0 0 0 0 0 0 0 0 0 0 0 0 0 0 0 0 0 0 0 0 0
0 0 0 0 0 0 0 0 0 0 0 0 0 0 0 0 0 0 0 0 0 0 0 0 0 0 0 0 0 0 0 0
0 0 0 0 0 0 0 0 0 0 0 0 0 0 0 0 0 0 0 0 0 0 0 0 0 0 0 0 0 0 0 0
0 0 0 0 0 0 0 0 0 0 0 0 0 0 0 0 0 0 0 0 0 0 0 0 0 0 0 0 0 0 0 0
0 0 0 0 0 0 0 0 0 0 0 0 0 0 0 0 0 0 0 0 -0 -0 0 0 0 0 0 0 0 0 0 0
0 0 0 0 0 0 0 0 0 0 0 0 0 0 0 0 0 0 0 0 0 -0 -0 -0 0 0 0 0 0 0 0 0
0 0 0 0 0 0 0 0 0 0 0 0 0 0 0 0 0 0 0 0 0 0 0 0 0 0 0 0 0 0 0 0
0 0 0 0 0 0 0 0 0 0 0 0 0 0 0 0 0 0 0 0 0 0 0 0 0 0 0 0 0 0 0 0
Wind_Speed_500mb
73 71 65 62 61 57 56 55 53 50 48 46 44 43 43 39 36 34 34 33 34 34 35 38 39 40 39 39 38 40 38 36
70 65 63 63 62 59 56 54 52 48 44 43 41 40 36 35 35 34 34 32 33 33 33 38 39 40 40 38 37 37 37 37
65 63 64 64 63 59 55 50 47 43 40 38 37 36 34 34 34 34 33 32 30 31 30 31 30 31 33 32 32 32 34 34
61 62 61 61 60 56 51 46 42 38 36 35 35 35 34 33 35 34 33 31 30 29 27 27 28 28 29 31 32 34 35 34
56 57 57 53 53 52 47 42 37 34 31 31 31 33 33 33 33 31 32 31 29 27 26 27 28 28 28 29 28 30 33 34
51 50 50 50 48 46 41 36 31 28 27 27 29 29 29 31 32 33 33 31 31 29 28 28 29 27 26 27 27 28 31 32
45 46 46 43 40 35 30 26 24 24 25 25 25 27 28 29 29 31 34 33 33 32 31 32 31 26 26 26 27 28 33 33
49 47 44 40 32 27 23 21 22 24 26 27 27 26 25 26 27 29 30 33 33 35 36 36 35 31 30 29 32 32 33 34
50 47 41 35 28 23 22 19 19 21 22 24 24 25 26 27 28 29 30 31 31 34 35 38 39 37 36 35 37 40 39 38
45 41 37 30 25 20 20 19 18 17 17 15 15 17 19 22 23 24 26 28 29 31 32 35 37 34 37 37 41 45 46 46
44 38 32 27 21 16 15 15 14 12 11 10 10 11 13 15 16 18 19 22 24 26 27 30 31 29 31 32 39 45 47 48
35 31 26 21 18 18 14 13 10 8 8 9 7 8 10 11 12 14 15 18 20 22 22 24 26 24 28 29 35 41 43 45
31 25 21 18 17 14 13 12 9 8 5 4 5 7 7 8 8 11 11 12 16 18 15 17 19 20 20 21 26 29 34 36
22 22 20 18 15 12 11 8 6 3 1 1 3 5 5 6 6 9 9 9 11 10 10 11 15 16 16 21 19 19 24 27
18 19 18 17 16 14 11 8 6 5 3 1 1 2 3 4 5 7 8 9 9 9 11 13 14 13 15 18 23 28 32 32
18 19 19 17 15 13 11 10 9 9 8 7 7 5 5 4 5 6 8 8 10 10 12 14 14 12 14 15 15 17 19 22
17 16 15 14 14 13 12 10 9 8 7 6 6 6 5 6 10 11 11 13 14 14 14 14 14 15 15 18 18 21 23 28
14 14 13 12 11 9 8 7 6 3 0 2 4 6 9 11 11 11 18 19 19 20 21 21 20 22 23 24 27 29 30 34
10 11 10 9 8 7 6 5 7 8 10 12 14 16 19 22 24 28 28 29 25 26 31 29 28 31 31 33 36 42 38 40
6 6 5 5 9 9 11 13 16 18 19 23 24 27 31 33 35 38 41 43 44 42 36 36 36 40 40 43 49 51 51 48
Wind_Direction_500mb
182 181 185 191 193 190 196 196 197 199 205 210 217 223 230 237 241 245 249 253 257 261 262 263 260 260 263 263 262 261 258 254
176 179 183 184 188 188 194 198 202 204 208 215 221 226 231 236 242 245 249 252 257 261 261 260 257 256 256 258 257 255 253 248
174 176 180 183 186 191 195 200 204 209 212 219 227 232 232 233 238 243 246 248 253 258 260 262 259 256 255 255 255 251 249 248
172 175 181 186 188 191 194 200 205 209 216 222 229 237 238 234 237 240 243 246 249 253 256 259 259 261 261 258 254 253 250 249
178 180 184 189 192 188 188 192 199 206 215 225 232 237 241 241 240 241 243 246 250 253 254 255 257 261 261 259 255 252 251 252
186 184 186 184 184 180 182 189 198 210 221 231 236 239 239 242 242 241 242 244 247 252 254 255 257 258 258 258 254 251 251 251
191 184 180 182 185 183 185 194 204 217 225 230 237 241 242 244 244 244 244 244 247 251 255 257 258 256 256 259 255 254 253 252
188 184 182 186 187 188 195 210 224 232 235 235 238 243 245 246 246 247 247 249 251 252 253 255 256 252 251 254 257 256 256 256
186 184 185 189 193 202 208 208 221 229 236 235 236 241 247 248 248 248 249 251 251 253 253 255 255 252 251 251 252 255 256 257
187 187 188 194 197 204 212 216 220 220 223 234 239 244 248 252 253 254 255 256 256 256 256 256 256 251 250 248 248 252 255 257
188 188 191 191 201 208 207 208 205 208 215 228 234 242 251 256 261 260 258 256 256 257 258 257 259 259 253 246 249 253 257 260
177 180 182 194 200 198 201 207 212 222 236 245 253 255 255 258 259 260 261 263 263 262 261 261 259 254 252 249 247 253 258 262
173 175 177 182 189 193 196 200 207 219 233 245 252 259 263 261 268 267 265 266 263 260 247 249 253 249 245 243 247 253 258 265
175 175 176 181 183 190 188 184 193 200 203 230 241 241 245 259 274 280 283 273 268 267 261 250 261 266 236 231 234 255 263 266
167 170 171 171 172 173 164 162 150 119 96 100 276 326 324 325 318 305 312 313 310 297 279 273 265 264 254 252 238 246 252 253
170 171 168 164 159 153 143 133 119 106 105 99 86 68 44 22 0 336 331 328 308 303 299 293 282 280 278 281 277 275 277 276
169 165 161 159 154 150 143 134 125 123 113 96 75 61 39 19 352 351 341 335 330 322 316 299 299 290 285 285 286 282 282 283
168 166 167 166 169 168 165 165 165 166 247 326 333 329 327 322 320 318 318 313 312 309 302 301 302 296 293 289 286 282 282 284
177 171 169 177 186 199 221 247 266 279 291 296 301 305 306 308 308 305 301 294 288 289 291 292 291 289 288 285 283 280 281 283
188 188 191 215 246 251 264 273 280 286 287 290 293 295 296 296 295 293 291 291 290 286 278 283 282 279 280 279 277 280 280 278
Wind_Speed_850mb
73 71 65 62 61 57 56 55 53 50 48 46 44 43 43 39 36 34 34 33 34 34 35 38 39 40 39 39 38 40 38 36
70 65 63 63 62 59 56 54 52 48 44 43 41 40 36 35 35 34 34 32 33 33 33 38 39 40 40 38 37 37 37 37
65 63 64 64 63 59 55 50 47 43 40 38 37 36 34 34 34 34 33 32 30 31 30 31 30 31 33 32 32 32 34 34
61 62 61 61 60 56 51 46 42 38 36 35 35 35 34 33 35 34 33 31 30 29 27 27 28 28 29 31 32 34 35 34
56 57 57 53 53 52 47 42 37 34 31 31 31 33 33 33 33 31 32 31 29 27 26 27 28 28 28 29 28 30 33 34
51 50 50 50 48 46 41 36 31 28 27 27 29 29 29 31 32 33 33 31 31 29 28 28 29 27 26 27 27 28 31 32
45 46 46 43 40 35 30 26 24 24 25 25 25 27 28 29 29 31 34 33 33 32 31 32 31 26 26 26 27 28 33 33
49 47 44 40 32 27 23 21 22 24 26 27 27 26 25 26 27 29 30 33 33 35 36 36 35 31 30 29 32 32 33 34
50 47 41 35 28 23 22 19 19 21 22 24 24 25 26 27 28 29 30 31 31 34 35 38 39 37 36 35 37 40 39 38
45 41 37 30 25 20 20 19 18 17 17 15 15 17 19 22 23 24 26 28 29 31 32 35 37 34 37 37 41 45 46 46
44 38 32 27 21 16 15 15 14 12 11 10 10 11 13 15 16 18 19 22 24 26 27 30 31 29 31 32 39 45 47 48
35 31 26 21 18 18 14 13 10 8 8 9 7 8 10 11 12 14 15 18 20 22 22 24 26 24 28 29 35 41 43 45
31 25 21 18 17 14 13 12 9 8 5 4 5 7 7 8 8 11 11 12 16 18 15 17 19 20 20 21 26 29 34 36
22 22 20 18 15 12 11 8 6 3 1 1 3 5 5 6 6 9 9 9 11 10 10 11 15 16 16 21 19 19 24 27
18 19 18 17 16 14 11 8 6 5 3 1 1 2 3 4 5 7 8 9 9 9 11 13 14 13 15 18 23 28 32 32
18 19 19 17 15 13 11 10 9 9 8 7 7 5 5 4 5 6 8 8 10 10 12 14 14 12 14 15 15 17 19 22
17 16 15 14 14 13 12 10 9 8 7 6 6 6 5 6 10 11 11 13 14 14 14 14 14 15 15 18 18 21 23 28
14 14 13 12 11 9 8 7 6 3 0 2 4 6 9 11 11 11 18 19 19 20 21 21 20 22 23 24 27 29 30 34
10 11 10 9 8 7 6 5 7 8 10 12 14 16 19 22 24 28 28 29 25 26 31 29 28 31 31 33 36 42 38 40
6 6 5 5 9 9 11 13 16 18 19 23 24 27 31 33 35 38 41 43 44 42 36 36 36 40 40 43 49 51 51 48
Wind_Direction_850mb
182 181 185 191 193 190 196 196 197 199 205 210 217 223 230 237 241 245 249 253 257 261 262 263 260 260 263 263 262 261 258 254
176 179 183 184 188 188 194 198 202 204 208 215 221 226 231 236 242 245 249 252 257 261 261 260 257 256 256 258 257 255 253 248
174 176 180 183 186 191 195 200 204 209 212 219 227 232 232 233 238 243 246 248 253 258 260 262 259 256 255 255 255 251 249 248
172 175 181 186 188 191 194 200 205 209 216 222 229 237 238 234 237 240 243 246 249 253 256 259 259 261 261 258 254 253 250 249
178 180 184 189 192 188 188 192 199 206 215 225 232 237 241 241 240 241 243 246 250 253 254 255 257 261 261 259 255 252 251 252
186 184 186 184 184 180 182 189 198 210 221 231 236 239 239 242 242 241 242 244 247 252 254 255 257 258 258 258 254 251 251 251
191 184 180 182 185 183 185 194 204 217 225 230 237 241 242 244 244 244 244 244 247 251 255 257 258 256 256 259 255 254 253 252
188 184 182 186 187 188 195 210 224 232 235 235 238 243 245 246 246 247 247 249 251 252 253 255 256 252 251 254 257 256 256 256
186 184 185 189 193 202 208 208 221 229 236 235 236 241 247 248 248 248 249 251 251 253 253 255 255 252 251 251 252 255 256 257
187 187 188 194 197 204 212 216 220 220 223 234 239 244 248 252 253 254 255 256 256 256 256 256 256 251 250 248 248 252 255 257
188 188 191 191 201 208 207 208 205 208 215 228 234 242 251 256 261 260 258 256 256 257 258 257 259 259 253 246 249 253 257 260
177 180 182 194 200 198 201 207 212 222 236 245 253 255 255 258 259 260 261 263 263 262 261 261 259 254 252 249 247 253 258 262
173 175 177 182 189 193 196 200 207 219 233 245 252 259 263 261 268 267 265 266 263 260 247 249 253 249 245 243 247 253 258 265
175 175 176 181 183 190 188 184 193 200 203 230 241 241 245 259 274 280 283 273 268 267 261 250 261 266 236 231 234 255 263 266
167 170 171 171 172 173 164 162 150 119 96 100 276 326 324 325 318 305 312 313 310 297 279 273 265 264 254 252 238 246 252 253
170 171 168 164 159 153 143 133 119 106 105 99 86 68 44 22 0 336 331 328 308 303 299 293 282 280 278 281 277 275 277 276
169 165 161 159 154 150 143 134 125 123 113 96 75 61 39 19 352 351 341 335 330 322 316 299 299 290 285 285 286 282 282 283
168 166 167 166 169 168 165 165 165 166 247 326 333 329 327 322 320 318 318 313 312 309 302 301 302 296 293 289 286 282 282 284
177 171 169 177 186 199 221 247 266 279 291 296 301 305 306 308 308 305 301 294 288 289 291 292 291 289 288 285 283 280 281 283
188 188 191 215 246 251 264 273 280 286 287 290 293 295 296 296 295 293 291 291 290 286 278 283 282 279 280 279 277 280 280 278